Regional Weather Roundup
Issued by NWS Charleston, WV

Home | Current Version | Previous Version | Graphics & Text | Print | Product List | Glossary On
Versions: 1 2 3 4 5 6 7 8 9 10 11 12 13 14 15 16 17 18 19 20 21 22 23 24 25 26 27 28 29 30 31 32 33 34 35 36 37 38 39 40 41 42 43 44 45 46 47 48 49 50
000
ASUS41 KRLX 311410
RWRRLX
West Virginia Regional Weather Roundup
National Weather Service Charleston WV
1000 AM EDT FRI JUL 31 2015

Note: "fair" indicates few or no clouds below 12,000 feet with no
significant weather and/or obstructions to visibility.

WVZ003-311500-
Northern Panhandle of West Virginia

CITY           SKY/WX    TMP DP  RH WIND       PRES   REMARKS
WHEELING       SUNNY     74  59  59 SW6       30.03S
$$

WVZ009-311500-
Northwest West Virginia

CITY           SKY/WX    TMP DP  RH WIND       PRES   REMARKS
PARKERSBURG    SUNNY     75  62  64 SW5       30.07S
$$

WVZ006-311500-
Western West Virginia

CITY           SKY/WX    TMP DP  RH WIND       PRES   REMARKS
HUNTINGTON     SUNNY     73  65  75 S3        30.06F
$$

WVZ015-311500-
West Central West Virginia

CITY           SKY/WX    TMP DP  RH WIND       PRES   REMARKS
CHARLESTON     SUNNY     73  62  68 CALM      30.07S
$$

WVZ022-031-311500-
North Central West Virginia

CITY           SKY/WX    TMP DP  RH WIND       PRES   REMARKS
CLARKSBURG     SUNNY     73  63  70 SW3       30.05S
MORGANTOWN     SUNNY     77  58  51 VRB3      30.05F
$$

WVZ025-035-042-045-311500-
Southern West Virginia

CITY           SKY/WX    TMP DP  RH WIND       PRES   REMARKS
BECKLEY        SUNNY     71  56  58 N5        30.14R
LOGAN            N/A     70  64  83 CALM      30.07S
BLUEFIELD      SUNNY     73  56  54 N6        30.15F
LEWISBURG      SUNNY     70  61  73 CALM      30.12S
$$

WVZ047-311500-
Northern Mountains of West Virginia

CITY           SKY/WX    TMP DP  RH WIND       PRES   REMARKS
ELKINS         SUNNY     70  59  68 CALM      30.10S
$$

WVZ052-311500-
Eastern Panhandle of West Virginia

CITY           SKY/WX    TMP DP  RH WIND       PRES   REMARKS
MARTINSBURG    SUNNY     79  59  50 NW8       29.98F
PETERSBURG     SUNNY    N/A N/A N/A CALM      30.04S
$$


USA.gov is the U.S. government's official web portal to all federal, state and local government web resources and services.